Location: Caoba
(9.7667°N, 67.4833°W)
Time: 21:02:36
(UTC+00:00)

GOES 2 Rocket - Pass Details

Date: 14 December 2024
Orbit: 569 x 1662 km, 28.4° (Epoch: 14 January)

Event Time Altitude Azimuth Distance (km) Brightness Sun altitude
Exits shadow 08:50:27 66° 108° (ESE) 617 3.1 -25.4°
Drops below altitude 10° 08:54:09 10° 117° (ESE) 1,899 6.6 -24.6°
Sets 08:56:32 0° 118° (ESE) 2,869 7.9 -24.0°
